Location: Wald
(31.7579°N, 86.6655°W)
Time: 11:50:01
(UTC+00:00)

Landsat 5 - Pass Details

Date: 14 July 2020
Orbit: 529 x 654 km, 98.2° (Epoch: 08 August)

Event Time Altitude Azimuth Distance (km) Brightness Sun altitude
Exits shadow 09:30:36 - 168° (SSE) 2,303 6.2 -15.4°
Reaches altitude 10° 09:31:43 10° 169° (S) 1,837 5.7 -15.2°
Maximum altitude 09:35:40 84° 257° (WSW) 553 3.2 -14.6°
Drops below altitude 10° 09:39:33 10° 346° (NNW) 1,797 6.2 -13.9°
Sets 09:41:38 0° 347° (NNW) 2,682 7.2 -13.5°
